Location: Shannon
(40.5500°S, 175.4167°E)
Time: 09:22:37
(UTC+00:00)

CZ-2C R/B - Pass Details

Date: 17 November 2025
Orbit: 664 x 773 km, 98.4° (Epoch: 14 December)

Event Time Altitude Azimuth Distance (km) Brightness Sun altitude
Rises 15:12:12 0° 23° (NNE) 3,204 5.5 -15.9°
Reaches altitude 10° 15:14:31 10° 25° (NNE) 2,274 4.8 -15.6°
Maximum altitude 15:19:29 66° 106° (ESE) 814 2.8 -14.9°
Drops below altitude 10° 15:24:21 10° 187° (S) 2,236 5.4 -14.2°
Sets 15:26:37 0° 190° (S) 3,146 6.1 -13.9°
